Location: Titusville
(28.6120°N, 80.8080°W)
Time: 06:08:04
(UTC-05:00)

Tiangong 1 - Visible Passes

Search period start: 16 December 2017 00:00
Search period end: 26 December 2017 00:00
Orbit: 274 x 301 km, 42.8° (Epoch: 16 December)

Date Brightness Start Highest point End Pass type
(mag) Time Alt. Az. Time Alt. Az. Time Alt. Az.
18 Dec 2.9 05:34:01 19° SSE 05:34:32 21° SE 05:36:31 10° E visible
19 Dec 1.9 05:39:00 37° E 05:39:00 37° E 05:40:44 10° ENE visible
20 Dec 2.8 05:43:30 19° NE 05:43:30 19° NE 05:44:24 10° NE visible
21 Dec 3.5 05:47:36 10° NNE 05:47:36 10° NNE 05:47:38 10° NNE visible
